Dewpoint
67 66 67 68 68 68 68 68 68 68 67 66 65 64 61 58 57 56 57 56 56 56 55 55 56 54 55 55 53 51 48 49
66 66 67 67 68 67 67 67 66 66 64 63 61 59 58 57 57 56 55 55 55 54 54 54 54 53 53 52 49 47 47 50
66 66 65 66 67 67 66 65 64 62 60 59 57 57 55 54 55 55 54 54 54 53 53 52 52 54 54 52 49 47 48 50
66 66 66 66 66 66 65 63 61 60 59 56 57 55 53 53 54 54 53 52 53 52 52 51 49 45 49 49 48 49 53 56
65 65 65 65 65 65 63 62 58 58 58 56 55 54 53 52 52 51 51 50 45 44 44 40 43 44 47 48 49 49 52 54
63 64 64 63 62 61 60 58 57 54 52 53 53 52 53 52 49 48 46 43 42 40 42 46 47 49 49 48 48 48 50 51
61 61 63 62 59 57 57 58 56 52 51 52 52 50 50 52 49 48 45 44 42 41 46 47 48 48 48 48 48 49 48 49
59 59 58 59 57 55 54 55 55 52 52 52 51 51 51 51 50 48 47 44 40 41 45 46 46 47 47 46 45 45 45 45
58 58 57 56 55 53 53 53 53 51 52 52 51 51 49 48 46 44 43 40 40 44 46 46 45 44 44 43 42 42 41 41
60 56 56 55 53 52 51 51 51 50 49 50 49 47 46 44 43 42 41 41 41 44 44 43 43 41 40 39 39 39 38 38
59 56 55 55 53 50 48 49 48 48 47 47 47 46 45 42 41 41 43 39 41 44 43 42 41 40 39 38 38 37 36 35
58 56 54 52 50 48 47 47 46 47 47 46 47 45 44 42 40 42 40 39 43 42 43 42 40 37 36 36 36 36 36 35
57 55 52 49 48 46 46 45 44 45 45 45 46 45 44 42 40 41 38 37 41 44 43 41 38 38 36 36 36 36 35 34
57 54 52 50 48 47 47 45 44 43 43 44 45 45 43 41 39 39 37 36 42 44 42 40 38 38 36 35 34 34 34 33
55 54 52 51 49 48 47 45 43 42 42 42 43 43 42 39 38 37 38 37 42 43 42 39 38 39 38 36 32 31 32 33
55 53 51 50 49 47 46 44 41 41 41 40 41 41 41 39 38 37 38 36 39 42 42 40 38 38 39 37 39 34 31 31
53 53 51 50 49 47 46 44 43 41 41 40 39 40 39 37 36 36 37 36 38 40 41 41 39 37 37 37 37 35 33 29
52 53 52 49 48 47 46 47 44 42 40 40 38 38 38 37 36 35 36 35 38 40 41 41 39 38 37 36 35 33 32 30
51 51 49 48 47 47 46 46 43 42 40 39 37 36 36 36 36 34 34 35 35 36 39 39 39 39 38 36 35 33 31 30
49 49 48 47 46 45 45 45 42 41 40 38 36 36 35 36 35 35 33 33 33 34 34 34 35 36 36 33 31 31 31 31
Wind_Speed
18 21 20 15 18 21 22 22 21 20 19 22 19 16 16 18 18 16 16 17 15 14 14 14 16 16 16 11 13 12 10 10
20 21 21 20 19 22 22 22 21 21 22 19 18 16 17 18 20 19 18 17 18 15 15 14 15 14 17 10 19 7 11 12
18 20 20 20 17 15 20 21 21 21 21 20 18 14 15 16 14 17 18 16 18 18 17 16 15 12 12 9 8 10 11 11
17 19 19 18 19 19 14 18 15 15 16 18 15 16 13 15 14 16 18 16 16 17 18 17 13 13 10 8 13 12 17 18
21 18 16 18 16 16 14 12 12 10 15 17 13 12 14 13 12 12 14 15 13 14 14 9 7 9 10 12 13 12 17 15
18 22 19 18 16 14 13 12 13 12 11 11 13 12 12 10 9 7 8 7 11 10 9 10 10 13 13 13 12 11 15 14
18 17 20 18 15 14 12 13 15 14 14 14 12 10 10 10 9 7 8 8 10 11 14 14 14 15 13 14 14 13 14 14
19 17 17 20 17 16 15 15 16 15 13 14 14 13 13 12 9 7 6 9 10 11 13 15 14 15 15 14 14 13 13 14
22 19 18 19 18 15 15 14 13 15 15 16 15 14 14 13 12 10 12 11 12 11 13 14 15 13 17 14 14 14 13 12
25 19 20 19 18 17 15 14 16 14 15 12 14 14 16 14 13 12 14 13 13 13 13 13 15 14 14 12 14 13 13 13
26 24 22 21 18 16 15 15 12 11 12 13 16 16 17 15 14 15 16 15 13 13 14 15 15 14 13 11 12 11 12 12
26 24 23 20 18 15 14 14 13 12 12 14 15 16 17 15 14 16 16 16 15 15 15 15 16 17 15 15 11 10 10 10
27 26 25 24 22 21 21 22 18 16 15 16 17 16 17 15 14 16 15 15 18 18 17 18 17 19 18 16 12 11 10 9
26 27 28 26 24 23 23 23 21 19 17 17 15 18 18 17 16 17 16 17 21 22 22 19 18 20 9 12 10 6 8 8
27 28 28 27 26 21 20 19 16 18 19 18 18 15 18 18 17 16 16 15 15 19 21 21 17 16 14 3 6 5 11 4
24 25 26 25 25 24 27 28 25 21 22 19 18 17 17 18 18 17 17 15 17 17 17 16 12 16 13 5 3 13 6 7
23 26 26 26 28 26 26 24 23 20 20 21 19 17 17 18 18 18 18 16 17 17 18 16 15 14 12 11 7 4 6 6
20 24 26 28 29 28 29 28 25 23 22 21 20 19 17 17 17 17 17 17 18 18 17 16 13 11 10 12 9 6 8 6
16 20 24 24 28 28 29 28 27 27 27 23 22 20 19 19 19 18 16 16 16 15 15 14 13 13 12 10 7 6 6 8
15 19 23 25 26 26 26 26 25 24 26 22 23 22 21 20 17 17 15 16 15 15 13 13 13 12 11 9 8 7 7 8
Wind_Direction
169 175 180 176 154 145 140 141 134 131 128 131 137 133 138 142 135 132 127 123 120 119 118 114 113 105 95 87 88 58 82 79
180 177 174 174 164 137 134 132 131 129 127 128 126 140 154 145 136 134 133 134 127 126 118 113 113 113 111 120 102 100 89 86
186 179 177 170 156 137 130 130 127 127 127 126 142 159 148 154 122 134 132 132 132 128 120 110 108 107 118 154 101 95 92 79
179 179 174 166 151 142 144 139 141 147 146 149 162 162 163 138 132 128 126 134 129 122 121 127 153 142 130 116 100 104 80 64
182 179 172 160 151 149 149 150 145 146 160 166 162 161 148 145 140 141 132 148 139 132 134 164 162 129 106 100 111 108 102 78
180 179 174 169 162 157 149 147 147 152 160 174 164 166 163 151 153 157 158 163 138 138 131 128 123 108 105 109 105 112 111 91
187 178 173 170 162 154 152 153 166 156 168 177 176 168 159 150 149 163 150 146 143 144 139 134 123 109 103 102 102 99 103 100
180 183 172 165 168 167 161 164 166 158 168 168 165 161 162 151 153 148 152 167 162 156 147 137 123 117 108 105 104 101 100 102
184 179 171 171 165 168 167 164 161 164 172 169 164 163 163 156 153 160 167 163 149 145 141 130 121 119 111 108 104 100 97 96
193 176 181 169 167 169 175 166 180 172 176 167 168 165 163 154 157 167 164 158 155 154 145 137 132 126 119 117 107 102 98 92
195 187 178 176 176 169 168 164 161 160 170 170 180 177 174 165 167 167 164 155 160 157 155 148 135 126 120 112 100 102 94 89
197 192 177 167 158 160 165 166 165 168 179 184 176 180 176 181 172 164 169 159 154 167 159 149 145 135 126 105 101 99 98 100
199 188 174 161 165 169 177 184 179 180 183 175 177 178 178 179 172 165 171 168 161 160 155 152 147 136 123 109 108 102 97 96
203 193 181 181 179 182 186 187 186 181 179 178 179 177 176 174 173 175 175 168 168 164 160 165 163 167 149 140 149 128 100 90
208 200 189 187 183 182 181 179 177 179 180 178 179 181 179 174 172 176 173 168 177 173 169 177 170 181 192 255 173 159 146 93
207 201 190 189 184 180 179 182 183 188 178 173 173 176 175 173 169 175 172 178 178 182 181 181 180 182 188 231 329 123 176 152
211 201 192 188 184 185 180 190 193 176 176 169 170 174 177 172 174 172 177 178 180 188 188 195 193 182 193 174 151 139 152 161
213 206 198 188 185 186 185 187 181 175 176 173 168 174 174 177 169 175 172 179 177 186 187 189 192 189 192 196 183 182 185 172
222 213 206 199 189 189 185 181 173 174 173 175 164 174 179 177 175 168 174 173 174 177 184 183 186 194 191 193 202 201 187 186
222 217 210 202 195 192 190 181 172 172 172 174 174 175 176 171 170 163 159 161 163 167 173 177 182 182 178 183 182 179 179 182